{"data":{"norad_id":60146,"intl_designator":"2024-120M","name":"STARLINK-32127","alt_names":[],"object_type":"PAYLOAD","status":"ACTIVE","operator":null,"country":"US","launch_date":"2024-06-27","launch_site_code":"AFETR","launch_vehicle":null,"mission":null,"orbit_class":"UNKNOWN","rcs_meters":null,"size_class":null,"mass_kg":null,"dimensions":null,"purposes":["comms"],"wikipedia_slug":null,"has_3d_model":false,"image_url":null,"decayed_at":null,"tle_current":{"epoch":"2026-09-21T20:57:38.939040Z","epoch_age_seconds":62864,"freshness":"FRESH","line1":"1 60146U 24120M   26264.87336735 -.00000332  00000+0  12964-5 0  9993","line2":"2 60146  53.1595 125.0648 0001298 102.3619 257.7529 15.34384254126460","mean_motion":15.34384254,"eccentricity":0.0001298,"inclination_deg":53.1595,"raan_deg":125.0648,"arg_perigee_deg":102.3619,"mean_anomaly_deg":257.7529,"bstar":1.2964e-6,"rev_number":12646,"period_min":93.848721156128,"perigee_km":461.86209389972,"apogee_km":463.63798817558,"semimajor_km":6840.8870410376,"source":"CELESTRAK","updated_at":"2026-09-22T09:00:49.178521Z"}}}